Home   Weather   Lippstadt   Past weeks

Flag for Germany Past Weather in Lippstadt, North Rhine-Westphalia, Germany — Yesterday and Last 2 Weeks

Now
61 °F

Clear.


Feels Like: 61 °F
Forecast: 56 / 69 °F
Wind: 9 mph from South

Location: Paderborn / Lippstadt

Current Time: Sep 28, 2016 at 12:33:01 AM

Latest Report: Sep 27, 2016 at 11:50 PM


Visibility: 10 mi

Pressure: 30.30 "Hg

Humidity: 59%

Dew Point: 46 °F

Location of LippstadtLocation

Past Weather in Lippstadt — Graph

°F

Lippstadt Temperature Yesterday

Maximum temperature yesterday: 72 °F (at 4:20 PM)
Minimum temperature yesterday: 50 °F (at 1:50 AM)
Average temperature yesterday: 59 °F

High & Low Weather Summary for the Past Weeks

 TemperatureHumidityPressure
High90 °F (Sep 13, 1:50 PM)94% (Sep 17, 3:20 PM)30.33 "Hg (Sep 17, 3:20 PM)
Low43 °F (Sep 21, 5:50 AM)25% (Sep 13, 5:20 PM)29.83 "Hg (Sep 15, 4:20 PM)
Average63 °F63%30.08 "Hg
* Reported Sep 12 11:20 PM — Sep 27 11:20 PM, Lippstadt, Weather by CustomWeather, © 2016

Note: Actual official high and low records may vary slightly from our data, if they occured in-between our weather recording intervals... More about our weather records

Advertising

Lippstadt Weather History for the Previous 24 Hours

Scroll right to see more
 ConditionsComfort  
Time TempWeatherWind HumidityBarometerVisibility
11:20 PM
Tue, Sep 27
61 °FClear.10 mph59%30.30 "Hg10 mi
10:50 PM61 °FClear.7 mph59%30.30 "Hg10 mi
10:20 PM61 °FClear.8 mph55%30.30 "Hg10 mi
9:50 PM61 °FClear.9 mph55%30.33 "Hg10 mi
9:20 PM61 °FPassing clouds.5 mph55%30.30 "HgN/A
8:50 PM57 °FClear.5 mph72%30.30 "Hg10 mi
8:20 PM61 °FClear.3 mph63%30.30 "Hg10 mi
7:50 PM59 °FClear.2 mph72%30.30 "Hg10 mi
7:20 PM63 °FClear.2 mph64%30.30 "Hg10 mi
6:50 PM66 °FSunny.1 mph56%30.30 "Hg10 mi
6:20 PM68 °FSunny.2 mph53%30.30 "Hg10 mi
5:50 PM70 °FSunny.1 mph50%30.27 "Hg10 mi
5:20 PM68 °FPassing clouds.5 mph53%30.27 "HgN/A
4:50 PM70 °FPassing clouds.6 mph46%30.27 "HgN/A
4:20 PM72 °FScattered clouds.3 mph44%30.27 "HgN/A
3:50 PM70 °FScattered clouds.3 mph46%30.27 "HgN/A
3:20 PM70 °FScattered clouds.3 mph46%30.30 "HgN/A
2:50 PM70 °FScattered clouds.3 mph50%30.30 "HgN/A
2:20 PM70 °FPassing clouds.5 mph50%30.30 "HgN/A
1:50 PM68 °FPassing clouds.2 mph53%30.30 "HgN/A
1:20 PM66 °FPassing clouds.3 mph56%30.30 "HgN/A
12:50 PM66 °FScattered clouds.3 mph56%30.30 "HgN/A
12:20 PM64 °FSunny.6 mph60%30.30 "Hg10 mi
11:50 AM64 °FSunny.5 mph60%30.30 "Hg10 mi
11:20 AM64 °FPassing clouds.2 mph60%30.30 "HgN/A
10:50 AM63 °FSunny.2 mph64%30.30 "Hg10 mi
10:20 AM61 °FSunny.2 mph68%30.30 "Hg10 mi
9:50 AM59 °FSunny.1 mph72%30.30 "Hg10 mi
9:20 AM55 °FSunny.2 mph82%30.30 "Hg10 mi
8:50 AM54 °FSunny.5 mph82%30.30 "Hg10 mi
8:20 AM52 °FSunny.1 mph88%30.27 "Hg10 mi
7:50 AM52 °FSunny.2 mph88%30.27 "Hg10 mi
7:20 AM52 °FSunny.2 mph88%30.27 "Hg10 mi
6:50 AM52 °FClear.5 mph88%30.27 "Hg10 mi
6:20 AM52 °FClear.3 mph88%30.27 "Hg10 mi
5:50 AM50 °FPassing clouds.3 mph94%30.27 "HgN/A
5:20 AM50 °FPassing clouds.3 mph88%30.24 "HgN/A
4:50 AM50 °FClear.2 mph88%30.24 "Hg10 mi
4:20 AM50 °FClear.1 mph94%30.24 "Hg10 mi
3:50 AM50 °FClear.2 mph94%30.24 "Hg10 mi
3:20 AM50 °FClear.3 mph94%30.24 "Hg10 mi
2:50 AM50 °FClear.3 mph88%30.24 "Hg10 mi
2:20 AM50 °FClear.1 mph88%30.24 "Hg10 mi
1:50 AM50 °FClear.2 mph94%30.24 "Hg10 mi
1:20 AM52 °FPassing clouds.3 mph88%30.24 "HgN/A
12:50 AM52 °FClear.2 mph88%30.24 "Hg10 mi
12:20 AM52 °FClear.2 mph88%30.24 "Hg10 mi
Weather by CustomWeather, © 2016

See weather overviewHow to use our weather pages